FW9733 Weather Reports


Display with metric or nautical units.
time (UTC)temp
F
wind
direction
speed
MPH
gust
MPH
rain 1hr
in
rain 24hr
in
rain mn
in
humidity
%
barometer
mb
20260903190114 74 197 1.0 8.0 0.00 0.00 0.00 24 1022.0
20260903184609 74 229 2.0 4.0 0.00 0.00 0.00 23 1022.1
20260903183100 73 0 0.0 8.0 0.00 0.00 0.00 24 1022.1
20260903181601 73 163 1.0 7.0 0.00 0.00 0.00 23 1022.1
20260903180115 72 66 0.0 4.0 0.00 0.00 0.00 24 1022.0
20260903174601 72 226 1.0 4.0 0.00 0.00 0.00 24 1022.0
20260903173106 70 0 1.0 4.0 0.00 0.00 0.00 24 1022.0
20260903171606 70 94 1.0 4.0 0.00 0.00 0.00 24 1021.9
20260903170108 70 0 0.0 4.0 0.00 0.00 0.00 22 1021.8
20260903164609 69 299 0.0 3.0 0.00 0.00 0.00 22 1021.7
20260903163056 68 242 0.0 7.0 0.00 0.00 0.00 23 1021.7
20260903161603 68 159 0.0 3.0 0.00 0.00 0.00 22 1021.7
20260903160108 67 0 0.0 2.0 0.00 0.00 0.00 23 1021.7
20260903154606 65 0 0.0 2.0 0.00 0.00 0.00 25 1021.7
20260903153111 62 0 0.0 1.0 0.00 0.00 0.00 28 1021.6
20260903151600 56 0 0.0 1.0 0.00 0.00 0.00 34 1021.5
20260903150103 49 0 0.0 1.0 0.00 0.00 0.00 38 1021.6
20260903144605 46 0 0.0 1.0 0.00 0.00 0.00 38 1021.6
20260903143058 45 0 0.0 1.0 0.00 0.00 0.00 36 1021.5
20260903141601 44 0 0.0 1.0 0.00 0.00 0.00 35 1021.4
20260903140100 44 75 0.0 2.0 0.00 0.00 0.00 33 1021.3
20260903134602 44 0 0.0 1.0 0.00 0.00 0.00 31 1021.4
20260903133102 44 84 0.0 1.0 0.00 0.00 0.00 31 1021.2
20260903131600 45 0 0.0 1.0 0.00 0.00 0.00 28 1021.2
20260903130120 45 0 0.0 1.0 0.00 0.00 0.00 27 1021.2
20260903124553 45 0 0.0 1.0 0.00 0.00 0.00 24 1021.2
20260903123106 45 0 0.0 1.0 0.00 0.00 0.00 24 1021.2
20260903121601 46 0 0.0 2.0 0.00 0.00 0.00 21 1021.2
20260903120105 46 0 0.0 2.0 0.00 0.00 0.00 20 1021.2
20260903114600 46 0 0.0 1.0 0.00 0.00 0.00 20 1021.3
20260903113102 47 64 0.0 2.0 0.00 0.00 0.00 19 1021.4
20260903111613 47 0 0.0 1.0 0.00 0.00 0.00 20 1021.3
20260903110123 48 0 0.0 2.0 0.00 0.00 0.00 20 1021.3
20260903104559 47 53 1.0 3.0 0.00 0.00 0.00 20 1021.6
20260903103059 46 68 0.0 2.0 0.00 0.00 0.00 22 1021.7
20260903101606 45 0 0.0 2.0 0.00 0.00 0.00 24 1021.7
20260903100059 45 0 0.0 3.0 0.00 0.00 0.00 25 1021.7
20260903094559 44 0 1.0 2.0 0.00 0.00 0.00 27 1021.8
20260903093100 44 0 0.0 3.0 0.00 0.00 0.00 29 1022.0
20260903091558 44 105 0.0 2.0 0.00 0.00 0.00 31 1022.1
20260903090055 44 77 0.0 2.0 0.00 0.00 0.00 32 1022.2
20260903084603 44 82 0.0 2.0 0.00 0.00 0.00 33 1022.4
20260903083104 44 0 0.0 1.0 0.00 0.00 0.00 33 1022.5
20260903081616 44 0 0.0 1.0 0.00 0.00 0.00 32 1022.8
20260903080059 44 0 0.0 2.0 0.00 0.00 0.00 31 1022.8
20260903074608 45 80 0.0 1.0 0.00 0.00 0.00 32 1022.8
20260903073103 44 0 0.0 1.0 0.00 0.00 0.00 33 1022.8
20260903071556 44 65 0.0 1.0 0.00 0.00 0.00 33 1022.9
20260903064602 45 79 0.0 1.0 0.00 0.00 0.00 32 1023.0
20260903063057 45 0 0.0 1.0 0.00 0.00 0.00 32 1022.9
20260903061559 45 0 0.0 1.0 0.00 0.00 0.00 31 1023.0
20260903054558 46 0 0.0 1.0 0.00 0.00 0.00 34 1023.1
20260903053107 45 68 0.0 1.0 0.00 0.00 0.00 36 1023.2
20260903051601 46 0 0.0 1.0 0.00 0.00 0.00 39 1023.2
20260903044558 47 0 0.0 1.0 0.00 0.00 0.00 42 1023.2
20260903043101 48 0 0.0 2.0 0.00 0.00 0.00 41 1023.1
20260903041604 48 0 0.0 1.0 0.00 0.00 0.00 41 1023.1
20260903040059 50 0 0.0 1.0 0.00 0.00 0.00 41 1023.2